Weather in Rakinskaya

Russia / Komi Republic     60°39′10″N   49°12′55″E
temp.,
°C
wind,
m/s
gust,
m/s
humid.,
%
clouds,
%
prec.,
mm/h
press.,
hPa
HPBL,
m
8 march, mon
mon800:00−16e3896100 0.0 1000225
03:00−16ene4895100 0.0 999256
06:00−16ene41095100 0.1 998352
09:00−15ene4893100 0.3 998356
12:00−13ne4891100 0.2 998474
15:00−12ne4891100 0.4 1000633
18:00−15nne41093100 0.3 1001582
21:00−16nne4994100 0.4 1004496
9 march, tue
tue900:00−20nne3997100 0.1 1006338
03:00−24n3897100 0.1 1008249
06:00−27n389645 0.0 1011216
09:00−26n369322 0.0 1013277
12:00−21n359072 0.0 1015456
15:00−20n358984 0.0 1016585
18:00−25n259793 0.0 101794
21:00−28nne239847 0.0 102040
10 march, wed
wed1000:00−29n22990 0.0 102019
03:00−30n22990 0.0 102119
06:00−31nnw22990 0.0 102119
09:00−24nw23910 0.0 1021231
12:00−18wnw248336 0.0 1021468
15:00−17wnw368958 0.0 1020568
18:00−21wnw3997100 0.0 1019284
21:00−18wnw3996100 0.1 1018383
11 march, thu
thu1100:00−16wnw3996100 0.2 1017381
03:00−13nw41293100 0.5 1016575
06:00−11nw51390100 0.1 1017711
09:00−10nw51177100 0.1 1018609
12:00−9nw498086 0.0 1019640
15:00−8wnw4107774 0.0 1020687
18:00−12wnw3138612 0.0 1021524
21:00−14w313946 0.0 1022373
12 march, fri
fri1200:00−14w312931 0.0 1022414
03:00−16w399636 0.0 1022261
06:00−16wsw3109595 0.0 1023274
09:00−14wsw499197 0.0 1024351
12:00−10wsw4884100 0.0 1023590
15:00−8sw4981100 0.0 1022759
18:00−11sw3119196 0.0 1022551
21:00−13ssw3129387 0.0 1021419